Change the Weather History Date:

Wednesday, April 9, 2014

  Actual Average Record
Temperature  
Mean Temperature 58 °F -  
Max Temperature 79 °F 69 °F 87 °F (2011)
Min Temperature 37 °F 49 °F 28 °F (2003)
Degree Days  
Heating Degree Days 8    
Growing Degree Days 8 (Base 50)    
Moisture  
Dew Point 42 °F    
Average Humidity 73    
Maximum Humidity 100    
Minimum Humidity 29    
Precipitation  
Precipitation 0.00 in - - ()
Sea Level Pressure  
Sea Level Pressure 30.11 in    
Wind  
Wind Speed 3 mph (SSE)    
Max Wind Speed 16 mph    
Max Gust Speed 20 mph    
Visibility 10 miles    
Events      
Averages and records for this station are not official NWS values.
T = Trace of Precipitation, MM = Missing Value Source: NWS Daily Summary

Daily Weather History Graph

Daily Weather History Graph

Search for Another Location

Airport or City:

Trip Planner

Search our weather history database for the weather conditions in past years. The results will help you decide how hot, cold, wet, or windy it might be!

Date:

Astronomy

Apr. 09, 2014 Rise Set
Actual Time 7:04 AM CDT 7:55 PM CDT
Civil Twilight 6:38 AM CDT 8:20 PM CDT
Nautical Twilight 6:08 AM CDT 8:51 PM CDT
Astronomical Twilight 5:37 AM CDT 9:22 PM CDT
Moon 2:57 PM CDT (4/9) 3:40 AM CDT (4/9)
Length of Visible Light 13h 41m
Length of Day
12h 50m
Waxing Gibbous, 72% of the Moon is Illuminated
Apr 9
Waxing Gibbous
Apr 15
Full
Apr 22
Last Quarter
Apr 29
New
May 6
First Quarter

Hourly Weather History & Observations

Time (CDT) Temp. Windchill Dew Point Humidity Pressure Visibility Wind Dir Wind Speed Gust Speed Precip Events Conditions
12:15 AM 41.9 °F 39.0 °F 39.2 °F 90% 30.15 in 10.0 mi ENE 4.6 mph - N/A   Clear
12:35 AM 42.1 °F - 39.9 °F 92% 30.15 in 10.0 mi Calm Calm - N/A   Clear
12:55 AM 43.5 °F - 39.9 °F 87% 30.16 in 10.0 mi Calm Calm - N/A   Clear
1:15 AM 43.3 °F - 40.1 °F 88% 30.16 in 10.0 mi Calm Calm - N/A   Clear
1:35 AM 42.4 °F - 39.6 °F 90% 30.16 in 10.0 mi Calm Calm - N/A   Clear
1:55 AM 41.5 °F - 39.0 °F 91% 30.16 in 10.0 mi Calm Calm - N/A   Clear
2:15 AM 41.4 °F - 39.2 °F 92% 30.16 in 10.0 mi Calm Calm - N/A   Clear
2:35 AM 40.5 °F - 38.7 °F 93% 30.15 in 10.0 mi Calm Calm - N/A   Clear
2:55 AM 40.3 °F - 39.2 °F 96% 30.15 in 10.0 mi Calm Calm - N/A   Clear
3:15 AM 40.6 °F - 39.2 °F 95% 30.15 in 10.0 mi Calm Calm - N/A   Clear
3:35 AM 39.9 °F 36.7 °F 37.9 °F 93% 30.17 in 10.0 mi WSW 4.6 mph - N/A   Clear
3:55 AM 39.0 °F - 37.8 °F 95% 30.16 in 10.0 mi Calm Calm - N/A   Clear
4:15 AM 37.9 °F - 37.4 °F 98% 30.16 in 10.0 mi Calm Calm - N/A   Clear
4:35 AM 38.7 °F - 37.8 °F 97% 30.16 in 10.0 mi Calm Calm - N/A   Clear
4:55 AM 39.0 °F - 38.1 °F 97% 30.17 in 10.0 mi Calm Calm - N/A   Clear
5:15 AM 38.5 °F - 37.4 °F 96% 30.16 in 10.0 mi Calm Calm - N/A   Clear
5:35 AM 38.3 °F - 38.1 °F 99% 30.16 in 10.0 mi Calm Calm - N/A   Clear
5:55 AM 37.4 °F - 37.4 °F 100% 30.16 in 3.0 mi Calm Calm - N/A   Clear
6:15 AM 38.3 °F - 38.3 °F 100% 30.17 in 10.0 mi Calm Calm - N/A   Clear
6:35 AM 38.3 °F - 37.8 °F 98% 30.17 in 10.0 mi Calm Calm - N/A   Clear
6:55 AM 37.4 °F - 37.4 °F 100% 30.18 in 10.0 mi Calm Calm - N/A   Clear
7:55 AM 37.4 °F - 37.4 °F 100% 30.19 in 10.0 mi Calm Calm - N/A   Clear
8:55 AM 48.2 °F - 42.8 °F 82% 30.21 in 10.0 mi Calm Calm - N/A   Clear
9:55 AM 57.2 °F - 42.8 °F 59% 30.21 in 10.0 mi Calm Calm - N/A   Clear
10:55 AM 68.0 °F - 39.2 °F 35% 30.20 in 10.0 mi SSE 10.4 mph - N/A   Clear
11:55 AM 71.6 °F - 41.0 °F 33% 30.17 in 10.0 mi South 10.4 mph 19.6 mph N/A   Clear
12:55 PM 75.2 °F - 42.8 °F 31% 30.14 in 10.0 mi South 9.2 mph 17.3 mph N/A   Clear
1:55 PM 77.0 °F - 42.8 °F 29% 30.10 in 10.0 mi SSW 16.1 mph - N/A   Clear
2:55 PM 78.8 °F - 46.4 °F 32% 30.06 in 10.0 mi SSE 12.7 mph 18.4 mph N/A   Clear
3:55 PM 78.8 °F - 46.4 °F 32% 30.03 in 10.0 mi South 16.1 mph - N/A   Clear
4:55 PM 78.8 °F - 44.6 °F 30% 30.00 in 10.0 mi South 15.0 mph - N/A   Clear
5:55 PM 78.8 °F - 48.2 °F 34% 29.98 in 10.0 mi SSE 10.4 mph 13.8 mph N/A   Clear
8:55 PM 71.6 °F - 48.2 °F 43% 29.97 in 10.0 mi SSE 9.2 mph - N/A   Clear
9:55 PM 64.4 °F - 50.0 °F 59% 29.97 in 10.0 mi SE 6.9 mph - N/A   Clear
10:15 PM 65.5 °F - 50.2 °F 58% 29.97 in 10.0 mi SSE 9.2 mph - N/A   Clear
10:35 PM 66.6 °F - 49.8 °F 55% 29.97 in 10.0 mi SSE 10.4 mph - N/A   Clear
10:55 PM 66.2 °F - 50.0 °F 56% 29.96 in 10.0 mi SSE 10.4 mph - N/A   Clear
11:15 PM 66.7 °F - 49.3 °F 53% 29.96 in 10.0 mi SSE 10.4 mph 19.6 mph N/A   Clear
11:35 PM 66.4 °F - 49.1 °F 54% 29.96 in 10.0 mi SSE 10.4 mph - N/A   Clear
11:55 PM 66.2 °F - 48.4 °F 53% 29.96 in 10.0 mi South 11.5 mph 16.1 mph N/A   Clear